Regional Weather Roundup
Issued by NWS Charleston, SC

Current Version | Previous Version | Graphics & Text | Print | Product List | Glossary On
Versions: 1 2 3 4 5 6 7 8 9 10 11 12 13 14 15 16 17 18 19 20 21 22 23 24 25 26 27 28 29 30 31 32 33 34 35 36 37 38 39 40 41 42 43 44 45 46 47 48 49 50
000 ASUS42 KCHS 192110 RWRCHS REGIONAL WEATHER ROUNDUP NATIONAL WEATHER SERVICE CHARLESTON SC 500 PM EDT TUE AUG 19 2014 NOTE: "FAIR" INDICATES FEW OR NO CLOUDS BELOW 12,000 FEET WITH NO SIGNIFICANT WEATHER AND/OR OBSTRUCTIONS TO VISIBILITY. NOT ALL STATIONS ARE QUALITY CONTROLLED BY THE NATIONAL WEATHER SERVICE. USE DATA WITH CAUTION...ESPECIALLY DEWPOINT OBSERVATIONS. SCZ027-030-031-034>040-042>050-192200- ...SOUTH CAROLINA... CITY SKY/WX TMP DP RH WIND PRES REMARKS N CHARLESTON PTSUNNY 86 72 62 SW14G22 29.84S HX 92 WATERFRONT PRK N/A 81 N/A N/A SW7 N/A FORT JOHNSON NOT AVBL MOUNT PLEASANT FAIR 84 72 65 SW10G16 29.84S JOHNS ISLAND CLEAR 79 75 89 CALM 29.85F PINOPOLIS N/A 90 72 55 W14G21 29.75F HX 96 MONCKS CORNER NOT AVBL SUMMERVILLE FAIR 90 72 55 SW9G17 29.84S HX 96 BEAUFORT MCAS CLOUDY 83 73 72 W13 29.87F BEAUFORT ARPT FAIR 81 73 78 SW8 29.87S HILTON HEAD IS SUNNY 82 73 74 SW12 29.90S GEORGETOWN NOT AVBL WALTERBORO CLOUDY 86 68 54 SW10 29.86R ORANGEBURG MOSUNNY 90 69 50 W9 29.83F HX 94 BARNWELL CLOUDY 90 72 55 SW10G17 29.85S HX 96 AIKEN FAIR 91 72 52 W14 29.89R HX 98 MANNING FAIR 90 72 55 NW7 29.82F HX 96 KINGSTREE NOT AVBL COLUMBIA MOSUNNY 90 69 50 SW9 29.82F HX 94 SUMTER MOSUNNY 89 73 58 NW8 29.82F HX 96 FLORENCE PTSUNNY 80 74 81 W7 29.83F MYRTLE BEACH PTSUNNY 91 72 52 SW12 29.81F HX 98 N MYRTLE BEACH PTSUNNY 89 70 53 W9 29.81S HX 94 $$ GAZ063-065-086>088-099>101-113>116-118-119-134-136>141-150-192200- ...GEORGIA... CITY SKY/WX TMP DP RH WIND PRES REMARKS SAVANNAH ARPT PTSUNNY 83 74 74 SW10 29.90F HUNTER AAF PTSUNNY 83 75 78 W9 29.88F HX 90 FORT STEWART CLOUDY 82 73 73 SW6 29.90F STATESBORO NOT AVBL SYLVANIA CLOUDY 82 77 84 SW7 29.89S HX 90 CLAXTON FAIR 81 77 89 SW3 29.91F THOMSON MOSUNNY 91 76 60 W7 29.91S HX 103 AUGUSTA-BUSH MOSUNNY 93 68 43 W12 29.84S HX 97 AUGUSTA-DANIEL MOSUNNY 92 68 45 W9 29.86F HX 96 SWAINSBORO TSTM 79 79 100 W5 29.94R VIDALIA N/A 84 73 70 SW6 29.92R HX 91 ALMA CLOUDY 85 74 69 S8 29.94R HX 92 WAYCROSS CLOUDY 84 75 75 SW10G16 29.95R HX 92 JESUP N/A 84 77 79 CALM 29.93S HX 94 BRUNSWICK PTSUNNY 86 70 58 S5 29.93F HX 90 SAINT SIMONS CLOUDY 82 72 71 CALM 29.92F $$ SCZ027-028-034-036>038-045-046-048>050-GAZ119-141-192200- ...LAKE AND SUPPLEMENTAL COASTAL OBSERVATIONS... STATION/POSITION TIME TEMP WIND PRES WAVE SWELL AIR SEA DIR/SP/G HT/PER HT/PER/DIR (UTC) (F) (DEG/KT/KT) (MB) (FT/S) (FT/S/D) UPR LAKE MARION NOT AVBL WINYAH BAY 2000 89 240/ 10 1010.0S LAKE MURRAY 2000 85 170/ 7/ 8 1009.5F ACE BASIN NERRS 2000 78 250/ 3 1012.0S FORT PULASKI 2100 83 250/ 8/ 12 1012.5F SAPELO ISLAND 2000 160/ 4 1014.0S $$ ANZ835-935-AMZ111-154-330-350-352-354-374-450-454-472-192200- ...C-MAN AND BUOY OBSERVATIONS... STATION/POSITION TIME TEMP WIND PRES WAVE SWELL AIR SEA DIR/SP/G HT/PER HT/PER/DIR (UTC) (F) (DEG/KT/KT) (MB) (FT/S) (FT/S/D) FOLLY BEACH CMAN 2000 76 240/ 26/ 34 1011.9F BUOY 41004 2100 83 83 220/ 19/ 25 1009.8F 4/ 6 2/ 8 BUOY 41008 2100 82 85 250/ 17/ 19 1012.7F 2/ 3 5E ST. MARYS GA 2100 82 N/A 1/ 2 FRYING PAN BUOY NOT AVBL BUOY 41025 2100 80 250/ 12/ 14 1009.2R 4/ 7 2/210/ 7 CAPE LOOKOUT NC 2000 83 230/ 13/ 16 1009.3F BUOY 41002 1953 82 81 250/ 14/ 17 1013.6R 5/ 7 3/250/ 7 BUOY 41010 2100 85 86 270/ 6/ 8 1015.3F 3/ 5 2/260/ 5 BUOY 41012 NOT AVBL ST AUGUSTINE FL 2100 92 290/ 8/ 11 1015.0F CAPERS NEARSHORE 2000 86 230/ 19/ 23 N/A FRIPP NEARSHORE NOT AVBL $$

USA.gov is the U.S. government's official web portal to all federal, state and local government web resources and services.